Martinsburg, WV

1:54 AM EST on January 18, 2018 (GMT -0500)
Eastern W Va Regional-Shepherd

Weather History for KMRB - February, 2011

Change the Weather History Date:

Monday, February 7, 2011

  Actual Average Record
Temperature  
Mean Temperature 33 °F 32 °F  
Max Temperature 42 °F 41 °F 72 °F (2017)
Min Temperature 24 °F 23 °F -3 °F (1935)
Degree Days  
Heating Degree Days 32 33  
Month to date heating degree days 224 231  
Since 1 July heating degree days 3354 3314  
Cooling Degree Days 0 0  
Month to date cooling degree days 0 0  
Year to date cooling degree days 0 0  
Moisture  
Dew Point 28 °F    
Average Humidity 75    
Maximum Humidity 92    
Minimum Humidity 57    
Precipitation  
Precipitation 0.00 in 0.08 in 1.61 in (1965)
Month to date precipitation 0.90 0.58  
Year to date precipitation 2.04 3.02  
Sea Level Pressure  
Sea Level Pressure 29.90 in    
Wind  
Wind Speed 2 mph (NNE)    
Max Wind Speed 6 mph    
Max Gust Speed 7 mph    
Visibility 6 miles    
Events      
T = Trace of Precipitation, MM = Missing Value Source: NWS Daily Summary

Daily Weather History Graph

Daily Weather History Graph

Search for Another Location

Airport or City:

Trip Planner

Search our weather history database for the weather conditions in past years. The results will help you decide how hot, cold, wet, or windy it might be!

Date:

Astronomy

Feb. 07, 2011 Rise Set
Actual Time 7:13 AM EST 5:39 PM EST
Civil Twilight 6:45 AM EST 6:07 PM EST
Nautical Twilight 6:13 AM EST 6:38 PM EST
Astronomical Twilight 5:42 AM EST 7:10 PM EST
Moon 8:56 AM EST (2/7) 10:17 PM EST (2/7)
Length of Visible Light 11h 21m
Length of Day
10h 25m
Waxing Crescent, 18% of the Moon is Illuminated
Feb 7
Waxing Crescent
Feb 11
First Quarter
Feb 18
Full
Feb 24
Last Quarter
Mar 4
New

Hourly Weather History & Observations

Time (EST) Temp. Windchill Dew Point Humidity Pressure Visibility Wind Dir Wind Speed Gust Speed Precip Events Conditions
12:53 AM 28.9 °F - 25.0 °F 85% 30.05 in 7.0 mi Calm Calm - N/A   Partly Cloudy
1:53 AM 30.0 °F - 26.1 °F 85% 30.05 in 6.0 mi Calm Calm - N/A   Overcast
2:53 AM 30.0 °F - 26.1 °F 85% 30.03 in 6.0 mi Calm Calm - N/A   Mostly Cloudy
3:53 AM 27.0 °F - 24.1 °F 89% 30.02 in 4.0 mi Calm Calm - N/A   Clear
4:53 AM 25.0 °F - 23.0 °F 92% 30.02 in 5.0 mi Calm Calm - N/A   Clear
5:53 AM 25.0 °F - 23.0 °F 92% 30.03 in 4.0 mi Calm Calm - N/A   Partly Cloudy
6:53 AM 26.1 °F - 24.1 °F 92% 30.04 in 4.0 mi Calm Calm - N/A   Mostly Cloudy
7:53 AM 28.0 °F - 26.1 °F 92% 30.04 in 3.0 mi Calm Calm - N/A   Overcast
8:53 AM 30.9 °F - 28.0 °F 89% 30.03 in 4.0 mi Calm Calm - N/A   Overcast
9:53 AM 34.0 °F - 28.0 °F 79% 30.00 in 5.0 mi Calm Calm - N/A   Haze
10:53 AM 39.0 °F - 28.0 °F 65% 29.99 in 8.0 mi Calm Calm - N/A   Scattered Clouds
11:53 AM 41.0 °F 39.0 °F 28.9 °F 62% 29.96 in 9.0 mi NE 3.5 mph - N/A   Overcast
12:53 PM 42.1 °F 40.2 °F 28.9 °F 60% 29.91 in 10.0 mi ENE 3.5 mph - N/A   Scattered Clouds
1:53 PM 42.1 °F 40.2 °F 28.9 °F 60% 29.88 in 9.0 mi ENE 3.5 mph - N/A   Clear
3:53 PM 42.1 °F - 30.0 °F 62% 29.84 in 8.0 mi Calm Calm - N/A   Overcast
4:53 PM 41.0 °F - 28.9 °F 62% 29.83 in 10.0 mi Calm Calm - N/A   Overcast
5:53 PM 39.9 °F 37.8 °F 30.9 °F 70% 29.80 in 9.0 mi NE 3.5 mph - N/A   Overcast
6:53 PM 39.0 °F 36.8 °F 30.0 °F 70% 29.78 in 9.0 mi ENE 3.5 mph - N/A   Overcast
7:53 PM 39.0 °F 36.8 °F 30.0 °F 70% 29.76 in 8.0 mi NNW 3.5 mph - N/A   Overcast
8:53 PM 36.0 °F 32.1 °F 30.9 °F 82% 29.71 in 5.0 mi NNW 4.6 mph - N/A   Haze
9:53 PM 36.0 °F - 30.9 °F 82% 29.70 in 4.0 mi Calm Calm - N/A   Haze
10:53 PM 35.1 °F 32.2 °F 30.9 °F 85% 29.68 in 3.0 mi North 3.5 mph - N/A   Mostly Cloudy
11:53 PM 34.0 °F 31.0 °F 30.9 °F 89% 29.66 in 3.0 mi NNW 3.5 mph - N/A   Mostly Cloudy